SCP
0 0 1 1 0 0 1 1 1 1 1 1 1 1 1 0 0 0 0 0 1 1 1 1 1 1 1 1 1 1 1 1 1 1 0 0 0 1 1 1 0 0 0
0 1 1 1 0 0 1 1 1 1 1 1 1 1 1 1 0 0 0 0 1 1 1 1 1 1 1 1 1 1 1 1 1 1 0 0 0 1 1 0 0 0 0
1 1 1 1 1 1 1 1 1 1 1 1 1 1 1 1 1 1 1 0 0 1 1 1 1 1 1 1 1 1 1 1 1 1 0 0 0 0 0 0 0 0 0
1 1 1 1 1 1 1 1 1 1 1 1 1 1 0 1 1 1 1 0 0 0 1 1 1 1 1 1 1 1 1 1 1 0 0 0 0 0 0 0 0 0 0
2 2 1 1 1 1 1 1 1 1 1 1 0 0 0 0 0 1 0 0 0 0 0 0 1 1 1 1 1 1 1 1 1 0 0 0 0 0 0 0 0 0 0
5 4 2 1 1 2 2 1 1 1 1 0 0 0 0 0 0 0 0 0 0 0 0 0 0 1 1 1 1 1 1 1 1 0 0 0 0 0 0 0 0 0 0
7 6 3 2 2 2 2 1 1 1 0 0 0 0 0 0 0 0 0 0 0 0 0 0 0 0 1 1 1 1 1 1 1 1 1 0 0 0 0 0 0 0 0
7 5 3 2 2 2 2 1 1 0 0 0 0 0 0 0 0 0 0 0 0 0 0 0 0 0 1 1 1 1 1 1 1 1 1 1 1 1 1 1 1 0 0
4 3 2 2 2 2 2 1 1 0 0 0 0 0 0 0 0 0 0 0 0 0 0 0 0 0 1 1 1 1 1 1 1 1 1 1 1 1 1 1 1 1 1
2 2 1 1 2 2 1 1 1 0 0 0 0 0 0 0 0 0 0 0 0 0 0 0 0 0 0 0 0 0 1 1 1 1 1 1 1 1 1 1 1 1 1
2 1 1 1 1 1 1 1 0 0 0 0 1 1 0 0 0 0 0 0 0 0 0 1 0 0 1 1 1 0 0 0 0 1 1 1 1 1 1 1 1 1 1
1 1 1 1 1 1 1 0 0 0 0 1 1 1 1 1 1 0 0 0 0 0 0 0 1 1 1 1 1 1 0 0 0 0 1 1 1 1 1 1 1 1 1
1 1 0 0 0 0 0 0 0 0 0 1 1 1 1 1 1 1 1 0 0 0 0 0 1 1 1 1 1 1 0 0 0 0 0 0 1 1 1 1 1 1 1
1 1 0 0 0 0 0 0 0 0 0 1 1 1 1 1 1 1 1 1 1 1 1 1 1 1 1 1 1 1 0 0 0 0 0 0 0 0 0 0 1 1 1
1 0 0 0 0 0 0 0 0 0 1 1 1 1 1 1 1 1 1 1 1 1 1 1 1 1 1 1 1 0 0 0 0 0 0 0 0 0 0 0 0 0 0
1 1 0 0 0 1 1 1 0 0 1 1 1 1 1 1 1 1 2 2 2 2 1 1 1 1 1 1 1 0 0 0 0 0 0 0 0 0 0 0 0 0 0
1 1 1 1 1 1 1 1 1 1 1 1 1 1 1 1 1 1 2 2 2 2 2 1 1 1 1 1 1 0 0 0 0 0 0 0 0 0 0 0 0 0 0
1 1 1 1 1 1 1 1 1 1 1 1 1 1 1 1 1 2 2 3 3 3 2 2 2 2 1 1 1 1 0 0 0 0 0 0 0 0 0 0 0 0 0
2 2 1 1 1 1 2 2 1 1 1 1 2 2 2 2 2 2 2 3 3 3 3 3 2 2 1 1 1 0 0 0 0 0 0 0 0 0 0 0 0 0 0
2 2 2 2 2 2 2 2 2 2 2 2 2 2 2 2 2 2 3 3 3 4 4 3 2 2 1 1 1 1 1 1 0 0 0 0 0 0 0 0 0 0 0
3 3 3 3 3 3 3 3 3 3 2 2 2 2 2 2 2 2 2 3 3 4 4 4 3 2 1 1 1 1 1 1 0 0 0 0 0 1 1 0 0 0 0
3 3 4 4 4 3 2 2 2 2 2 2 2 2 2 3 2 2 2 2 2 3 4 4 3 2 1 1 1 1 1 1 0 0 0 1 1 1 1 1 0 0 0
5 5 4 4 4 3 2 1 1 2 2 2 2 2 3 2 2 2 2 2 2 2 2 3 3 2 1 1 1 1 0 1 1 0 1 1 1 1 1 0 0 0 0
7 7 6 5 4 3 1 1 1 1 2 2 2 2 2 2 2 2 2 2 2 1 1 1 2 2 1 1 1 0 1 1 1 1 1 1 1 0 0 0 0 0 0
8 9 8 6 4 3 1 0 1 1 2 2 2 2 2 1 1 1 1 1 2 1 1 1 1 1 1 1 0 0 1 1 1 1 1 0 0 0 0 0 0 0 0
9 10 8 5 3 2 1 1 1 2 2 2 2 2 1 1 1 1 1 1 1 1 1 1 0 0 0 0 0 0 1 1 1 1 1 0 0 0 0 0 0 0 0
Wind_Speed
1 1 1 1 1 0 1 1 0 1 1 1 1 2 2 3 3 3 2 7 8 9 11 12 12 12 12 12 12 12 12 12 11 11 11 10 10 10 10 9 9 9 8
1 1 1 0 0 0 0 1 1 1 1 1 1 2 2 2 3 3 3 5 9 9 11 12 12 12 13 13 13 12 12 12 11 11 11 10 10 10 10 10 9 9 8
1 1 1 0 0 0 0 1 1 1 1 1 1 1 2 2 2 3 4 3 4 8 11 11 12 12 12 13 13 12 12 12 11 11 11 10 10 9 9 9 9 9 9
1 1 1 1 0 0 1 1 1 1 0 0 0 1 1 1 2 3 3 3 3 4 7 10 11 11 12 13 13 13 13 12 12 11 11 11 10 10 9 9 9 9 9
1 1 1 1 0 1 1 1 1 1 1 0 0 1 1 1 1 2 2 3 3 3 3 6 9 10 11 12 13 13 13 12 12 12 12 11 11 10 10 10 9 9 9
1 1 1 1 0 1 0 1 1 1 1 1 0 0 1 1 1 1 2 2 2 3 3 4 4 6 9 10 11 13 13 12 12 12 12 12 11 11 10 10 10 10 10
1 1 1 0 1 1 1 1 1 1 1 1 1 1 2 1 0 1 1 1 2 2 3 3 3 3 4 8 10 11 12 12 12 12 12 12 12 12 11 11 11 10 10
1 1 1 1 1 1 1 1 1 1 1 1 1 1 2 3 2 1 0 1 1 1 2 3 4 4 4 4 6 11 12 12 12 13 12 11 10 10 10 11 10 10 10
0 0 1 1 1 1 1 1 2 2 1 0 1 2 2 1 2 2 1 1 0 1 2 2 3 4 5 4 4 7 9 10 11 11 11 11 10 10 10 11 10 10 10
1 0 0 1 1 1 1 1 1 1 2 1 0 0 1 2 1 1 2 1 1 1 1 2 2 3 4 3 4 6 8 7 8 10 10 10 10 9 9 9 10 10 9
1 1 0 1 1 1 1 1 1 1 1 2 1 1 1 0 1 1 2 1 1 1 1 1 1 1 2 2 3 4 6 6 5 6 6 7 6 6 6 7 7 7 7
1 1 0 1 1 1 1 1 1 2 1 2 1 1 2 2 2 2 2 1 1 1 1 1 1 0 1 2 3 5 5 5 4 4 4 4 4 4 4 5 6 6 7
1 1 0 1 1 1 1 1 1 1 1 2 2 2 2 2 2 2 2 1 0 1 1 1 1 1 1 1 2 5 5 5 4 4 4 4 3 3 3 3 4 5 6
1 1 1 1 1 1 1 1 1 1 1 1 2 2 2 2 2 2 2 2 1 0 0 1 1 1 1 2 3 4 4 5 5 4 4 4 4 3 3 3 3 3 3
1 1 1 1 1 1 1 1 1 1 0 1 1 1 1 1 1 2 2 2 2 1 1 1 0 1 1 2 3 3 3 5 5 5 5 5 5 5 4 4 4 3 3
1 1 1 1 1 1 1 1 0 0 1 0 0 0 1 1 1 1 2 2 2 2 1 1 1 1 2 3 4 4 4 6 6 6 6 5 6 6 6 6 5 5 4
2 2 1 1 1 0 0 1 0 0 0 0 0 0 1 1 1 1 1 1 2 2 2 1 1 1 2 3 3 3 3 3 4 6 6 7 6 6 6 6 6 6 6
2 2 2 1 1 1 1 1 1 0 0 0 1 1 1 1 1 1 1 2 2 2 3 2 1 1 2 3 3 3 3 3 3 6 6 6 6 6 6 6 6 5 5
2 2 2 2 2 1 1 1 1 1 1 1 1 1 2 1 1 1 1 1 2 2 2 3 2 2 2 2 3 3 3 2 3 4 5 5 5 5 5 6 6 5 5
2 2 2 2 2 1 1 1 1 1 1 1 1 1 1 1 2 1 1 1 1 2 2 3 3 2 2 2 3 3 2 2 2 2 3 3 4 5 5 5 5 5 4
2 1 1 1 1 1 2 2 2 2 1 1 1 1 1 1 0 1 1 1 2 2 2 3 3 2 2 3 3 3 3 2 1 1 2 1 2 2 2 3 3 4 4
1 1 1 1 1 2 2 3 2 2 1 1 1 1 1 1 0 1 1 2 3 3 3 3 3 3 3 3 3 4 4 3 1 1 2 1 1 1 1 1 2 3 3
2 2 1 1 1 2 2 2 2 2 2 1 1 1 1 1 1 1 1 2 1 2 3 3 4 4 4 4 5 4 3 2 2 2 2 1 1 1 0 1 2 3 3
2 2 1 1 1 1 1 2 2 2 1 1 2 2 2 1 1 1 2 1 1 1 1 2 3 3 3 4 5 5 5 3 2 1 2 2 1 1 1 0 1 2 2
2 2 1 1 1 2 1 2 2 1 1 1 1 1 1 1 1 2 3 2 1 1 2 2 2 2 4 5 6 5 4 4 2 2 2 2 2 1 1 1 1 1 2
3 2 1 1 2 1 1 2 3 2 1 1 1 1 0 1 1 2 2 2 2 1 1 2 2 2 3 4 6 5 5 4 3 2 3 3 3 2 2 1 1 1 1
Wind_Direction
105 80 63 71 77 104 132 136 156 177 169 186 188 180 186 187 192 193 204 210 210 209 207 205 203 203 202 202 201 200 198 197 195 193 195 195 194 193 192 191 191 192 191
124 117 96 51 58 153 161 163 176 172 169 180 192 188 198 193 194 197 205 215 216 215 214 213 211 210 209 208 206 205 204 202 200 196 198 200 199 199 199 199 197 197 196
135 129 142 241 267 101 103 129 136 143 154 177 186 200 204 201 198 201 206 212 217 220 218 218 216 215 215 214 211 209 207 204 202 202 202 204 202 201 200 202 203 203 202
155 137 161 228 225 141 132 148 144 133 156 169 185 240 224 212 217 212 212 214 213 219 224 224 223 221 220 218 217 214 212 208 207 208 208 209 205 203 205 206 206 206 204
156 155 185 241 172 147 163 178 142 158 161 163 211 249 249 222 232 226 220 218 211 213 222 231 230 226 225 223 221 220 216 213 210 211 212 209 207 207 208 208 209 210 208
181 154 185 232 165 146 161 154 142 124 149 183 251 15 312 256 238 240 235 224 213 216 219 228 232 233 230 228 225 224 222 216 214 212 211 211 212 211 211 212 214 216 214
206 168 171 152 154 176 191 167 143 129 129 132 96 15 352 346 255 261 241 218 218 218 209 218 224 226 230 230 229 227 226 221 217 215 214 214 216 216 215 216 217 217 217
229 195 163 167 181 170 147 144 139 131 127 132 126 89 1 352 354 350 325 244 239 221 228 231 226 221 220 223 230 227 224 222 220 214 211 212 214 214 215 215 215 217 220
281 230 166 180 183 175 179 182 167 160 163 168 121 136 145 238 314 340 359 334 293 224 243 240 233 224 217 218 225 225 221 219 216 214 214 215 216 216 217 220 222 220 220
319 334 170 175 175 175 188 206 168 161 158 173 183 178 174 164 178 310 326 349 353 298 266 256 244 226 215 213 213 213 213 209 211 215 217 219 218 214 216 220 224 222 217
331 347 161 155 166 177 193 196 159 162 169 173 175 171 164 162 185 196 276 315 348 350 325 278 270 244 216 202 207 205 193 187 192 199 208 216 215 203 204 209 215 215 213
319 337 123 154 166 176 193 201 187 175 187 180 175 168 168 182 199 199 225 259 294 324 356 2 330 291 177 165 167 157 152 151 160 174 184 189 192 192 190 200 212 212 211
278 298 166 141 163 182 188 175 165 196 196 189 196 200 197 211 190 185 180 206 260 306 342 10 352 18 104 137 144 142 137 135 139 149 156 158 168 180 186 200 207 206 206
225 234 162 147 167 176 183 165 177 223 201 205 212 204 209 221 197 189 178 165 184 296 303 288 29 53 77 95 92 117 121 122 126 129 128 129 133 143 156 159 153 156 161
212 177 154 156 163 151 156 151 181 226 186 223 246 230 230 233 205 205 193 184 177 190 245 215 184 76 104 97 93 101 110 112 118 120 117 113 110 110 110 113 116 123 131
199 152 149 170 169 131 127 136 169 229 133 266 238 261 285 274 239 205 190 191 189 179 207 198 184 131 108 100 94 96 98 104 111 114 114 111 108 104 101 97 95 94 95
183 182 185 179 179 165 138 133 163 93 108 329 317 222 262 269 260 228 186 183 187 173 187 208 126 116 118 110 94 93 93 92 97 102 106 105 104 102 100 99 96 93 90
188 188 178 174 193 195 160 159 200 181 182 287 282 274 281 281 282 243 198 201 194 182 169 171 143 137 120 123 111 104 98 96 97 97 101 103 105 103 102 99 94 90 88
182 178 173 183 197 203 184 187 193 206 224 256 257 248 264 256 282 282 229 208 194 171 164 158 152 126 112 124 108 100 93 82 97 103 102 101 105 106 105 103 103 99 92
175 180 185 193 198 197 194 199 191 200 235 271 266 250 261 252 248 253 248 220 175 158 153 157 151 140 133 132 131 127 106 85 93 101 95 99 105 111 110 111 113 109 102
175 171 172 201 217 212 225 205 200 206 219 259 286 285 286 296 250 212 200 186 163 153 154 156 160 151 155 158 162 151 141 124 91 120 116 109 111 105 110 124 124 116 113
163 152 178 212 241 257 256 211 195 197 205 241 269 291 304 314 330 92 99 139 164 171 176 176 180 180 188 174 153 157 151 150 168 167 146 127 122 123 126 136 128 129 129
167 169 208 220 247 273 253 213 194 191 197 222 246 263 272 283 179 147 103 104 106 124 173 185 182 196 191 180 161 159 167 169 176 157 149 141 125 126 134 125 140 151 149
182 192 204 220 243 287 241 196 187 188 198 247 253 246 238 266 228 163 131 103 85 77 168 184 189 197 186 170 168 163 157 136 109 122 160 162 158 154 100 111 138 163 170
190 196 192 207 225 275 255 191 172 165 182 270 279 269 234 238 230 160 143 136 96 44 63 107 129 144 145 151 153 141 145 150 161 180 179 168 161 149 143 158 153 151 160
194 186 185 216 220 250 257 192 178 177 200 251 302 318 317 218 209 171 169 164 172 230 117 92 96 109 137 152 161 172 170 168 166 182 180 171 162 161 168 172 181 177 172